STARLINK-37630, 69301

Orbit data source: Space-Track

STARLINK-37630, 69301 is a payload satellite owned by SpaceX/Seattle (US) in SSO that was launched on Sat, 30 May 2026 UTC via an FALCON 9 launch vehicle from the Air Force Western Test Range (AFWTR). Payload-class satellites include a variety of spacecraft equipped with specific instruments for various scientific and technological missions. These include communications satellites like Starlink; space stations such as the ISS; scientific satellites like the Hubble; Earth observation satellites from companies like Planet Labs, Umbra, and HawkEye 360; GPS; miniature CubeSats for education and research; and military/defense satellites.

Loading next visibility...
Identifier
69301, 2026-119F
Orbit
SSO
Country
Flag of USUS
Related business
Manufacturer
SpaceX/Seattle
Mission
Operational spacecraft
Bus & Motor
STARLINK V2MO, Unknown motor
Mass
575 kg wet, ~530 kg dry
Launch date (UTC)
2026-05-30 (2 months ago)
Launch vehicle
FALCON 9
Launch site
Air Force Western Test Range (AFWTR)
Object type
Payload
Rocket body
Debris
Shape & HBR
Unknown shape, 17.7 m
Radar Cross Section
Large (>1 m²)

Expand to show TLE details & history
Last TLE update: 16 hours ago

TLE from 16 hours ago
0 STARLINK-37630
1 69301U 26119F   26202.04641591  .00015560  00000-0  48324-3 0  9991
2 69301  97.2861 227.6289 0000579  85.2396 274.8912 15.33449774  9249
Epoch: 2026-07-21T01:06Z
TLE epoch observation values (Epoch: 2026-07-21T01:06:50.334Z)
Latitude
-0.00012°
Longitude
-87.90254°
Altitude
468.607 km
Speed
7.632 km/s
True Right ascension
15h 10m 30s
True Declination
0° 00' 00"
Sunlit
Object was in daylight at epoch
Visualization orbit readout
Latitude
Unknown
Longitude
Unknown
Altitude
Unknown
Speed
Unknown
Apparent Right ascension
Unknown
Apparent Declination
Unknown
Sunlit
N/A
Visualization observer readout
Local Sidereal Time
06:15:09
Azimuth
Unknown
Elevation
Unknown
Doppler factor
Unknown
Orbital elements
Apogee altitude
462.868 km
Perigee altitude
462.076 km
Semi-major axis
6,840.609 km
Eccentricity
0.00006
Inclination
97.2861°
RAAN
227.6289°
Arg. of periapsis
85.2396°
True anomaly
274.88459°
Mean anomaly
274.8912°
Eccentric anomaly
274.88789°
Mean motion
3.8362 °/min
Orbital period
93.84 mins
BSTAR
0.00048324
Loading maneuver chart data...
Computing Atmospheric mass density...
Loading historical data...
Loading historical data...
Loading historical data...
Loading historical data...
Loading historical data...
Loading historical data...
Loading historical data...

Documentation

Showing up to 5 results
|